Regional Weather Roundup
Issued by NWS

Home | Current Version | Previous Version | Text Only | Print | Product List | Glossary Off
Versions: 1 2 3 4 5 6 7 8 9 10 11 12 13 14 15 16 17 18 19 20 21 22 23 24 25 26 27 28 29 30 31 32 33 34 35 36 37 38 39 40 41 42 43 44 45 46 47 48 49 50

000
ASUS43 KDMX 220701
RWRIA

WEATHER ROUNDUP FOR IOWA
NATIONAL WEATHER SERVICE DES MOINES IA
100 AM CST WED FEB 22 2017

NOTE: "FAIR" INDICATES FEW OR NO CLOUDS BELOW 12,000 FEET WITH NO
SIGNIFICANT WEATHER AND/OR OBSTRUCTIONS TO VISIBILITY.

* - THESE STATIONS ARE NOT NWS STATIONS...THUS NOT UNDER NWS
QUALITY CONTROL.  THEY ALSO DO NOT REPORT WEATHER SUCH
AS PRECIPITATION OR FOG.

IAZ001>003-012>014-020>022-031>034-043>046-220800-
   NORTHWEST IOWA

CITY           SKY/WX    TMP DP  RH WIND       PRES   REMARKS
CARROLL *      CLEAR     50  37  62 SW22      29.72F
DENISON *      CLEAR     48  37  66 S12       29.71F
LE MARS *      CLEAR     46  36  66 S6G12     29.69R
SHELDON *      CLOUDY    48  39  71 S12       29.65R
SIOUX CITY     CLEAR     46  35  65 SE6       29.69S
SPENCER        CLEAR     45  37  73 S9        29.66F
STORM LAKE *   CLEAR     50  37  62 SW17      29.69F
$$

IAZ055>058-069>071-079>083-090>094-220800-
   SOUTHWEST IOWA

CITY           SKY/WX    TMP DP  RH WIND       PRES   REMARKS
ATLANTIC *     CLEAR     45  37  76 S8        29.77S
CLARINDA *     CLEAR     46  37  71 S5        29.81F
COUNCIL BLFS * CLEAR     55  36  47 SW16      29.75F
CRESTON *      CLEAR     45  34  65 S12       29.81S
HARLAN  *      CLEAR     45  37  76 S3        29.78F
LAMONI         CLEAR     49  35  58 S13       29.81F
SHENANDOAH *   PTCLDY    48  36  61 S5        29.79F
$$

IAZ047>049-059>061-072>074-084-220800-
   CENTRAL IOWA

CITY           SKY/WX    TMP DP  RH WIND       PRES   REMARKS
AMES           CLEAR     47  36  65 S5        29.75F
ANKENY *       CLEAR     52  32  46 S9        29.77F
BOONE *        CLEAR     52  36  54 SW13      29.73F
CHARITON *     CLEAR     48  34  57 S12       29.80S
DES MOINES     CLEAR     50  33  52 S9        29.77F
MARSHALLTOWN   PTCLDY    47  35  63 S12       29.75F
NEWTON *       PTCLDY    48  34  57 S9        29.78S
PELLA *        CLEAR     48  33  56 S7        29.81S
$$

IAZ004>006-015-016-023>025-035-036-220800-
   NORTH CENTRAL IOWA

CITY           SKY/WX    TMP DP  RH WIND       PRES   REMARKS
ALGONA *       CLEAR     46  39  76 S14       29.69F
CLARION *      CLEAR     41  39  93 S12       29.72F
ESTHERVILLE    CLEAR     38  36  92 S8        29.65F WCI  32
FORT DODGE *   CLEAR     48  36  61 S9        29.73S
MASON CITY     CLEAR     41  36  82 S9        29.73S
$$

IAZ007>011-017>019-026>030-037>042-050>054-066-220800-
   NORTHEAST IOWA

CITY           SKY/WX    TMP DP  RH WIND       PRES   REMARKS
CEDAR RAPIDS   CLEAR     44  44 100 S9        29.79F
CHARLES CITY * CLEAR     41  39  93 S12       29.74F
CLINTON *      CLEAR     46  46 100 S7        29.83F
DECORAH *      CLEAR     50  36  57 S12G18    29.73F
DUBUQUE        CLEAR     44  41  89 SW13      29.79F
WATERLOO       CLEAR     44  34  67 SE5       29.76S
$$

IAZ064-065-067-068-078-220800-
   EAST CENTRAL IOWA

CITY           SKY/WX    TMP DP  RH WIND       PRES   REMARKS
DAVENPORT      CLEAR     49  49 100 SW7       29.83F FOG
IOWA CITY      CLEAR     42  37  82 CALM      29.82F
MUSCATINE *    FOG       43  41  93 CALM      29.84S VSB<1/4
QUAD CITIES    CLEAR     47  43  86 S3        29.83S FOG
$$

IAZ062-063-075>077-085>089-095>099-220800-
   SOUTHEAST IOWA

CITY           SKY/WX    TMP DP  RH WIND       PRES   REMARKS
BURLINGTON     FOG       52  52 100 SW7       29.84S VSB 1/4
FAIRFIELD *    CLEAR     50  48  93 S8        29.82F
KEOKUK *       FOG       54  54 100 S7        29.84F VSB 3/4
OTTUMWA        CLEAR     47  34  60 S12       29.80F
$$

ABBREVIATIONS USED IN REMARKS
   TC - TEMPERATURES IN CELSIUS
  WCI - WIND CHILL INDEX
   HX - HEAT INDEX
  VSB - VISIBILITY
$$





USA.gov is the U.S. government's official web portal to all federal, state and local government web resources and services.